User: anonymous   Login
Location: Morehead State University
(38.1872°N, 83.4339°W)
Time: 07:05:51
(UTC-05:00)
Language:

Okean 2 - Orbit

View from above orbital plane
View from above orbital plane
View from above satellite
View from above satellite

Ground track
Ground track

The orbit data is extracted from the following two-line orbital elements,

1 20510U 90018A   14326.52631067  .00003204  00000-0  27862-3 0  8909
2 20510 082.5158 350.7714 0011332 263.9933 209.4071 14.96634471341052
Epoch (UTC): 22 November 2014 12:37:53
Eccentricity: 0.0011332
inclination: 82.5158°
perigee height: 569 km
apogee height: 585 km
right ascension of ascending node: 350.7714°
argument of perigee: 263.9933°
revolutions per day: 14.96634471
mean anomaly at epoch: 209.4071°
orbit number at epoch: 34105

The dashed part of the orbit path shows where the satellite is in the earth's shadow,  

DLR